Location: Piotrkow Trybunalski
(51.4000°N, 19.6830°E)
Time: 07:24:16
(UTC+02:00)

STRAND 1 - Pass Details

Date: 24 February 2024
Orbit: 764 x 779 km, 98.4° (Epoch: 24 April)

Event Time Altitude Azimuth Distance (km) Brightness Sun altitude
Rises 02:56:41 0° 97° (E) 3,263 ? -34.2°
Reaches altitude 10° 03:00:43 10° 66° (ENE) 2,341 ? -33.7°
Maximum altitude 03:02:19 11° 48° (NE) 2,243 ? -33.5°
Drops below altitude 10° 03:03:57 10° 29° (NNE) 2,350 ? -33.3°
Sets 03:07:57 0° 358° (N) 3,277 ? -32.7°
